www.pogodaiklimat.ru

Погода и климат >> Архив погоды >> Австрия >> Маттзе


ПОГОДА в Маттзе

  • Прогноз погоды в Маттзе
  • Монитор погоды в Маттзе

АРХИВ ПОГОДЫ в Маттзе

Время (UTC), дата Ветер
(напр.,м/с)
 
Видим.   Явления Облачность Т
(С)
Тd
(С)
f
(%)
Тe
(С)
Тes
(С)
Комфортность P
(гПа)
Po
(гПа)
Тmin
(С)
Tmax
(С)
R
(мм)
R24
(мм)
S
(см)
16 11.09 В 1 н/о н/о +18.0 +12.9 72 +19 +19 1023.0 964.8
17 11.09 В 1 н/о н/о +17.4 +13.2 76 +18 +18 1023.8 965.4
18 11.09 штиль 0 н/о {осадки} н/о +14.9 +12.4 85 +15 +15 1024.8 965.9 +11.5 +19.7 0.1
19 11.09 штиль 0 н/о н/о +13.6 +12.2 91 +13 +13 1026.1 966.8
20 11.09 ЮВ 1 н/о н/о +13.2 +12.1 93 +13 +13 1026.9 967.5
21 11.09 штиль 0 н/о н/о +13.6 +12.9 96 +13 +13 1027.1 967.8
22 11.09 штиль 0 н/о н/о +14.3 +13.1 92 +14 +14 1027.4 968.2
23 11.09 ЮЗ 1 н/о н/о +14.3 +12.6 90 +15 +15 1027.6 968.4
00 12.09 ЮЗ 1 н/о н/о +14.4 +12.4 88 +15 +15 1028.1 968.9
01 12.09 ЮЗ 2 н/о н/о +14.4 +12.0 85 +14 +14 1028.4 969.1 0.0
02 12.09 ЮЗ 2 н/о н/о +14.3 +11.1 81 +14 +14 1028.8 969.5
03 12.09 ЮЗ 2 н/о н/о +13.8 +11.1 84 +13 +13 1029.3 969.9 0.0
04 12.09 Ю 1 н/о н/о +14.0 +10.9 82 +14 +14 1029.5 970.1
05 12.09 З 1 н/о н/о +14.3 +11.2 82 +15 +15 1030.2 970.8 0.0
06 12.09 ЮЗ 1 н/о н/о +14.3 +10.7 79 +15 +15 1030.6 971.2 +12.6 +14.9 0.0
07 12.09 Ю 1 н/о н/о +15.1 +11.0 76 +16 +16 1030.8 971.5
08 12.09 ЮЗ 1 н/о н/о +15.9 +11.5 75 +17 +17 1031.3 972.2 0.0
09 12.09 ЮЗ 1 н/о н/о +17.0 +12.2 73 +18 +18 1031.5 972.6 0.0
10 12.09 ЮЗ 1 н/о н/о +17.9 +10.9 64 +19 +19 1031.7 972.9
11 12.09 ЮЗ 1 н/о н/о +19.4 +10.7 57 +22 +22 комфорт 1031.2 972.7
12 12.09 З 1 н/о н/о +19.6 +10.8 57 +22 +22 комфорт 1030.9 972.5 0.0
13 12.09 З 1 н/о н/о +21.6 +12.9 58 +24 +24 комфорт 1030.1 972.2
14 12.09 СЗ 2 н/о н/о +22.4 +11.3 49 +25 +25 комфорт 1029.7 971.9
15 12.09 З 1 н/о н/о +21.9 +11.2 51 +24 +24 комфорт 1029.5 971.6
16 12.09 СЗ 1 н/о н/о +21.1 +13.7 63 +24 +24 комфорт 1029.3 971.3
17 12.09 штиль 0 н/о н/о +19.3 +13.1 67 +20 +20 1029.6 971.3
18 12.09 ЮВ 1 н/о н/о +16.3 +12.7 79 +17 +17 1030.6 971.6 +14.3 +22.9 0.0
20 12.09 штиль 0 н/о н/о +13.9 +12.3 90 +13 +13 1032.0 972.4
21 12.09 СВ 1 н/о н/о +13.5 +12.0 91 +14 +14 1032.0 972.4
22 12.09 СВ 1 н/о н/о +13.2 +12.1 93 +13 +13 1032.3 972.6
23 12.09 штиль 0 н/о н/о +13.0 +11.9 93 +12 +12 1032.3 972.5
00 13.09 СВ 1 н/о н/о +14.0 +12.0 88 +14 +14 1031.9 972.4
01 13.09 штиль 0 н/о н/о +15.0 +11.8 81 +15 +15 1031.5 972.2
02 13.09 ЮЗ 2 н/о н/о +15.9 +11.4 75 +16 +16 1031.1 972.0
03 13.09 ЮЗ 2 н/о н/о +15.8 +11.4 75 +16 +16 1031.2 972.0
04 13.09 ЮЗ 1 н/о н/о +15.5 +11.2 76 +16 +16 1031.4 972.2
05 13.09 штиль 0 н/о н/о +14.6 +11.4 81 +14 +14 1031.8 972.4
06 13.09 ЮЗ 2 н/о н/о +15.4 +11.3 77 +15 +15 1031.7 972.4 +12.7 +16.9
07 13.09 ЮЗ 2 н/о н/о +16.4 +11.6 73 +17 +17 1031.6 972.5
08 13.09 ЮЗ 1 н/о н/о +18.0 +12.5 70 +19 +19 1031.6 972.9
09 13.09 З 1 н/о н/о +19.6 +12.8 65 +22 +22 комфорт 1031.1 972.7
10 13.09 З 1 н/о н/о +21.1 +13.8 63 +24 +24 комфорт 1030.4 972.4
11 13.09 СЗ 2 н/о н/о +21.9 +15.0 65 +25 +25 комфорт 1030.2 972.4
12 13.09 З 1 н/о н/о +23.2 +15.2 61 +27 +27 душно 1029.8 972.2
13 13.09 З 1 н/о н/о +23.9 +13.7 53 +26 +26 жарко 1029.5 972.0
14 13.09 СЗ 1 н/о н/о +24.2 +13.6 52 +26 +26 жарко 1029.2 971.8
15 13.09 СЗ 1 н/о н/о +24.5 +14.6 54 +27 +27 жарко 1028.8 971.5
16 13.09 СЗ 1 н/о н/о +23.4 +15.1 60 +28 +28 душно 1028.8 971.3
17 13.09 штиль 0 н/о н/о +21.7 +14.4 63 +25 +25 комфорт 1029.1 971.3
18 13.09 З 1 н/о н/о +18.7 +16.1 85 +21 +21 комфорт 1029.9 971.5 +15.3 +24.9
19 13.09 В 1 н/о н/о +17.2 +15.3 89 +18 +18 1030.8 972.0
20 13.09 штиль 0 н/о н/о +16.1 +14.6 91 +16 +16 1031.0 972.0
21 13.09 штиль 0 н/о н/о +16.4 +15.1 92 +16 +16 1031.3 972.3
22 13.09 ЮВ 1 н/о н/о +16.5 +15.0 91 +17 +17 1031.0 972.1
23 13.09 штиль 0 н/о н/о +16.6 +14.9 90 +16 +16 1030.8 971.9
00 14.09 штиль 0 н/о н/о +16.7 +14.6 87 +17 +17 1030.7 971.8
01 14.09 В 1 н/о н/о +16.3 +14.6 90 +17 +17 1030.2 971.3
02 14.09 С 1 н/о н/о +16.1 +14.8 92 +17 +17 1030.3 971.3
03 14.09 штиль 0 н/о н/о +15.9 +14.8 93 +16 +16 1030.3 971.3
04 14.09 штиль 0 н/о н/о +15.9 +14.6 92 +16 +16 1030.3 971.3
05 14.09 З 1 н/о н/о +15.2 +14.1 93 +16 +16 1030.4 971.2
06 14.09 З 1 н/о н/о +15.1 +14.0 93 +16 +16 1030.7 971.5 +14.5 +19.1
07 14.09 В 1 н/о н/о +15.9 +14.5 91 +17 +17 1030.5 971.5
08 14.09 СВ 5 н/о н/о +17.6 +14.6 83 +17 +17 1030.2 971.5
09 14.09 В 6 н/о н/о +18.5 +15.3 82 +19 +19 1030.0 971.5
10 14.09 СВ 6 н/о н/о +19.2 +15.4 79 +20 +20 1029.4 971.1
11 14.09 СВ 7 н/о н/о +19.4 +15.5 78 +21 +21 комфорт 1028.9 970.7
12 14.09 СВ 6 н/о н/о +19.9 +15.1 74 +22 +22 комфорт 1028.3 970.2
13 14.09 В 5 н/о н/о +21.2 +15.7 71 +24 +24 комфорт 1027.8 970.0
14 14.09 В 6 н/о н/о +20.8 +14.9 69 +24 +24 комфорт 1027.6 969.7
15 14.09 В 5 н/о н/о +20.3 +14.8 71 +23 +23 комфорт 1027.5 969.5
16 14.09 В 6 н/о н/о +20.1 +14.6 71 +22 +22 комфорт 1027.3 969.3
17 14.09 В 3 н/о н/о +19.0 +14.6 76 +20 +20 1027.2 969.0
18 14.09 В 2 н/о н/о +17.2 +14.0 81 +18 +18 1027.8 969.2 +14.9 +21.3
19 14.09 СВ 1 н/о н/о +15.8 +13.6 87 +16 +16 1028.5 969.5
20 14.09 СЗ 1 н/о н/о +15.1 +13.8 92 +16 +16 1028.6 969.5
21 14.09 С 1 н/о н/о +14.4 +13.0 91 +15 +15 1028.8 969.5
22 14.09 штиль 0 н/о н/о +14.0 +12.9 93 +14 +14 1028.8 969.5
23 14.09 З 1 н/о н/о +13.7 +12.9 95 +14 +14 1028.4 969.0
00 15.09 штиль 0 н/о н/о +13.2 +12.4 95 +13 +13 1028.1 968.6
01 15.09 штиль 0 н/о н/о +12.6 +11.9 95 +12 +12 1027.8 968.2
02 15.09 Ю 1 н/о н/о +12.2 +11.5 95 +12 +12 1027.1 967.5
03 15.09 СВ 1 н/о н/о +12.7 +11.9 95 +13 +13 1026.6 967.1
04 15.09 СВ 1 н/о н/о +11.9 +11.3 96 +12 +12 1026.8 967.1
05 15.09 штиль 0 н/о н/о +11.8 +11.3 97 +11 +11 1026.7 967.0
06 15.09 СВ 1 н/о н/о +13.3 +12.9 97 +13 +13 1026.3 967.0 +11.5 +17.8
07 15.09 З 1 н/о н/о +13.5 +12.9 96 +14 +14 1026.4 967.1
08 15.09 З 1 н/о н/о +14.9 +13.8 93 +15 +15 1026.0 967.0
09 15.09 В 1 н/о н/о +16.6 +15.0 90 +17 +17 1025.2 966.6
10 15.09 штиль 0 н/о н/о +19.4 +15.7 79 +21 +21 комфорт 1024.3 966.3
11 15.09 В 2 н/о н/о +20.8 +16.0 74 +25 +25 комфорт 1023.5 965.9
12 15.09 СЗ 2 н/о н/о +23.2 +16.4 66 +28 +28 душно 1022.6 965.5
13 15.09 З 1 н/о н/о +24.2 +16.8 63 +28 +28 душно 1021.7 964.8
14 15.09 СЗ 1 н/о н/о +25.2 +16.5 59 +29 +29 душно 1021.1 964.4
15 15.09 З 1 н/о н/о +25.0 +16.0 57 +28 +28 жарко 1020.4 963.7
16 15.09 СЗ 1 н/о н/о +24.2 +17.0 64 +28 +28 душно 1020.1 963.3
17 15.09 Ю 1 н/о н/о +22.2 +17.2 73 +27 +27 душно 1020.1 962.9
18 15.09 ЮЗ 1 н/о н/о +19.1 +16.2 83 +22 +22 комфорт 1020.9 963.1 +13.3 +25.2
19 15.09 штиль 0 н/о н/о +18.1 +16.4 90 +18 +18 1021.3 963.3
20 15.09 штиль 0 н/о н/о +17.3 +16.2 93 +17 +17 1021.5 963.3
21 15.09 ЮЗ 1 н/о н/о +16.3 +15.4 94 +17 +17 1021.7 963.3
22 15.09 ЮЗ 1 н/о н/о +16.1 +15.4 96 +17 +17 1021.9 963.4
23 15.09 штиль 0 н/о н/о +16.1 +15.5 96 +16 +16 1021.8 963.3
00 16.09 штиль 0 н/о н/о +16.5 +15.9 96 +16 +16 1021.4 963.0
01 16.09 ЮЗ 2 н/о н/о +17.8 +14.7 82 +18 +18 1020.6 962.5
02 16.09 З 1 н/о н/о +17.6 +14.1 80 +19 +19 1020.6 962.5
03 16.09 ЮЗ 2 н/о н/о +17.9 +13.5 75 +18 +18 1020.4 962.3
04 16.09 ЮЗ 2 н/о н/о +17.3 +13.4 78 +18 +18 1020.2 962.0
05 16.09 Ю 1 н/о н/о +15.8 +13.5 86 +16 +16 1020.5 962.0
06 16.09 ЮЗ 1 н/о н/о +17.0 +13.5 80 +18 +18 1020.4 962.1 +15.6 +19.5
07 16.09 ЮЗ 2 н/о н/о +17.8 +13.7 77 +18 +18 1020.2 962.1
08 16.09 ЮЗ 1 н/о н/о +19.5 +14.0 71 +22 +22 комфорт 1019.9 962.2
09 16.09 З 1 н/о н/о +20.8 +15.1 70 +25 +25 комфорт 1019.5 962.1
10 16.09 З 1 н/о н/о +22.2 +15.4 65 +26 +26 душно 1019.0 961.9
11 16.09 З 1 н/о н/о +22.9 +17.0 69 +28 +28 душно 1018.0 961.1
12 16.09 З 3 н/о н/о +24.8 +16.8 61 +28 +28 жарко 1016.8 960.3
13 16.09 СЗ 3 н/о н/о +25.4 +17.3 61 +29 +29 душно 1015.9 959.6
14 16.09 С 1 н/о н/о +25.3 +16.8 59 +29 +29 душно 1015.4 959.1
15 16.09 СВ 1 н/о н/о +23.7 +16.2 63 +27 +27 жарко 1015.8 959.1
16 16.09 ЮВ 1 н/о н/о +22.8 +16.1 66 +27 +27 душно 1015.6 958.8
17 16.09 ЮВ 1 н/о н/о +21.8 +17.4 76 +26 +26 душно 1015.5 958.5
18 16.09 штиль 0 н/о н/о +20.1 +16.7 81 +23 +23 комфорт 1015.9 958.6 +16.7 +26.2
19 16.09 штиль 0 н/о н/о +19.8 +17.3 86 +22 +22 комфорт 1016.3 958.9
20 16.09 ЮВ 1 н/о в посл. час осадки н/о +19.4 +17.7 90 +23 +23 комфорт 1016.5 959.0 0.1
21 16.09 Ю 1 н/о осадки н/о +18.7 +17.4 92 +21 +21 комфорт 1016.6 959.0 2
22 16.09 ЮЗ 1 н/о н/о +18.1 +16.0 88 +19 +19 1016.9 959.1 0.0
23 16.09 Ю 1 н/о н/о +17.9 +15.6 86 +19 +19 1016.7 958.9
00 17.09 ЮЗ 1 н/о в посл. час осадки {ливн. осадки} н/о +17.7 +15.5 87 +19 +19 1016.7 958.8 2
01 17.09 Ю 1 н/о н/о +17.2 +15.8 91 +18 +18 1016.5 958.6
02 17.09 штиль 0 н/о н/о +16.9 +15.4 91 +17 +17 1016.7 958.7
03 17.09 штиль 0 н/о н/о +15.7 +14.0 90 +15 +15 1017.1 958.8
04 17.09 ЮЗ 1 н/о н/о +15.2 +13.2 88 +16 +16 1017.3 958.9
05 17.09 штиль 0 н/о н/о +15.2 +12.7 85 +15 +15 1017.6 959.1
06 17.09 штиль 0 н/о н/о +15.5 +13.5 88 +15 +15 1017.6 959.2 +15.0 +20.4 2
07 17.09 ЮЗ 1 н/о н/о +16.5 +14.0 85 +17 +17 1017.3 959.1
08 17.09 СЗ 1 н/о н/о +17.2 +13.5 79 +18 +18 1017.3 959.3
09 17.09 З 1 н/о н/о +17.5 +13.4 77 +19 +19 1017.3 959.3
10 17.09 З 1 н/о н/о +18.0 +12.2 69 +19 +19 1017.2 959.3
11 17.09 З 2 н/о н/о +19.3 +12.7 66 +21 +21 комфорт 1016.8 959.2
12 17.09 З 3 н/о н/о +19.5 +13.7 69 +21 +21 комфорт 1016.3 958.8
13 17.09 З 3 н/о н/о +20.0 +13.6 67 +22 +22 комфорт 1015.6 958.2
14 17.09 СЗ 3 н/о н/о +19.4 +13.3 68 +21 +21 комфорт 1015.9 958.4
15 17.09 СЗ 3 н/о н/о +18.8 +12.7 68 +20 +20 1016.2 958.5
16 17.09 СЗ 2 н/о н/о +18.8 +13.3 70 +20 +20 1016.1 958.4
17 17.09 З 1 н/о н/о +17.7 +13.0 74 +19 +19 1016.4 958.5
18 17.09 СЗ 2 н/о н/о +17.3 +13.1 76 +18 +18 1017.1 959.1 +15.3 +21.4
19 17.09 З 4 н/о н/о +16.6 +12.5 77 +16 +16 1018.1 959.9
20 17.09 З 3 н/о н/о +15.5 +11.5 77 +15 +15 1019.4 960.9
21 17.09 З 2 н/о н/о +15.5 +11.5 77 +15 +15 1019.8 961.2
22 17.09 З 4 н/о н/о +15.2 +10.7 74 +14 +14 1019.9 961.3
23 17.09 З 4 н/о н/о +14.4 +10.3 76 +13 +13 1020.6 961.8
00 18.09 З 3 н/о н/о +13.6 +9.8 78 +12 +12 1021.1 962.1
01 18.09 З 3 н/о н/о +12.9 +8.3 74 +12 +12 1021.5 962.3
02 18.09 З 2 н/о н/о +12.2 +8.1 76 +11 +11 1022.1 962.7
03 18.09 З 1 н/о н/о +11.4 +7.3 76 +11 +11 1022.9 963.3
04 18.09 штиль 0 н/о н/о +9.6 +6.4 80 +9 +9 1023.8 963.7
05 18.09 СЗ 1 н/о н/о +10.4 +7.5 82 +10 +10 1024.0 964.1
06 18.09 С 1 н/о н/о +10.0 +6.9 81 +10 +10 1024.4 964.4 +9.5 +17.4
07 18.09 С 1 н/о н/о +10.5 +6.7 77 +10 +10 1024.6 964.7
08 18.09 СВ 1 н/о н/о +10.8 +4.6 66 +11 +11 1024.8 964.9
09 18.09 В 1 н/о н/о +11.5 +5.7 68 +12 +12 1024.6 964.9
10 18.09 В 1 н/о н/о +13.0 +5.6 61 +13 +13 1024.2 964.8
11 18.09 В 1 н/о н/о +13.9 +6.0 59 +14 +14 1023.8 964.6
12 18.09 СЗ 1 н/о н/о +16.0 +7.8 58 +17 +17 1022.9 964.2
13 18.09 СЗ 2 н/о н/о +17.1 +6.9 51 +17 +17 1022.3 963.8
14 18.09 СЗ 1 н/о н/о +17.5 +7.5 52 +19 +19 1021.9 963.5
15 18.09 СЗ 2 н/о н/о +16.6 +4.0 43 +17 +17 1021.9 963.3
16 18.09 СЗ 1 н/о н/о +15.3 +5.0 50 +16 +16 1022.1 963.3

 

Местоположение метеостанции Маттзе (Австрия): широта 47.98 долгота 13.10 высота над уровнем моря 503 м.

В архиве по умолчанию представлена погода в Маттзе за последнюю неделю. Архивные данные за месяц целиком и за предыдущие месяцы, начиная с января 2011 года, Вы можете получить, выбрав интересующий диапазон дат из раскрывающегося списка и нажав кнопку "Ввод!".


*Определитесь, кто Вы:
робот инопланетянин человек

Внимание! Время в таблицах - всемирное. Для получения местного времени необходимо прибавить поправку, которая равна 1 ч.

Смотрите также архив погоды в соседних городах и на ближайших метеорологических станциях:

Погода в Зальцбурге (Австрия) (21 км)
Погода в Зальцбурге университет (Австрия) (23 км)
Погода в Франкенмаркте (Австрия) (24 км)
Погода в Мондзе (Австрия) (25 км)
Погода в Рансхофене (Австрия) (27 км)
Погода в Санкт-Вольфганге (Австрия) (38 км)
Погода в Рид-им-Иннкрайсе (Австрия) (39 км)
Погода в Киминге (Германия) (44 км)
Погода в Вольфсегг-ам-Хаусрукке (Австрия) (44 км)
Погода в Фойеркогеле (Австрия) (50 км)

Пояснения к столбцам:

Ветер - указаны скорость ветра в м/с - средняя за 10 мин, порывы в срок и между сроками (в фигурных скобках) и направление, откуда дует ветер: С - северный, СВ - северо-восточный, В - восточный, ЮВ - юго-восточный, Ю - южный, ЮЗ - юго-западный, З - западный, СЗ - северо-западный.
Видимость - горизонтальная дальность видимости в метрах или километрах. При видимости от 1 до 10 км при отсутствии осадков обычно наблюдается дымка, при ухудшении видимости до 1 км и менее - туман. В сухую погоду видимость может ухудшаться дымом, пылью или мглою.
Явления - указаны атмосферные явления, наблюдавшиеся в срок или в последний час перед сроком; фигурными скобками обозначены явления, наблюдавшиеся между сроками (за 1-3 часа до срока); квадратными скобками обозначены град или гололедные отложения с указанием их диаметра в мм.
Облачность - указаны через наклонную черту общая и нижняя облачность в баллах и высота нижней границы облаков в метрах; квадратными скобками обозначены формы облаков: Ci - перистые, Cs - перисто-слоистые, Cc - перисто-кучевые, Ac - высококучевые, As - высокослоистые, Sc - слоисто-кучевые, Ns - слоисто-дождевые, Cu - кучевые, Cb - кучево-дождевые. Подробнее классификацию облаков см. в Атласе облаков (PDF).
T - Температура воздуха - температура, измеренная на высоте 2 м над землей.
Td - Температура точки росы - температура, при понижении до которой содержащийся в воздухе водяной пар достигнет насыщения.
f - Относительная влажность воздуха - влажноcть воздуха, измеренная на высоте 2 м над землей.
Te - Эффективная температура - температура, которую ощущает одетый по сезону человек в тени. Характеристика душности погоды. При расчете учитывается влияние влажности воздуха и скорости ветра на теплоощущения человека.
Tes - Эффективная температура на солнце - температура, которую ощущает человек, с поправкой на солнечный нагрев. Характеристика знойности погоды. Зависит от высоты солнца над горизонтом, облачности и скорости ветра. Ночью, в пасмурную погоду, а также при ветре 12 м/с и более поправка равна нулю.
P - Атмосферное давление - приведенное к уровню моря атмосферное давление.
Po - Атмосферное давление - измеренное на уровне метеостанции атмосферное давление.
Tmin - Минимальная температура - минимум температуры воздуха на высоте 2 м над землей.
Tmax - Максимальная температура - максимум температуры воздуха на высоте 2 м над землей.
R - Количество осадков - Количество выпавших осадков за период времени, мм. При наведении курсора мыши на число - период времени, за который выпало указанное количество осадков.
R24 - Количество осадков - Количество выпавших осадков за 24 часа, мм.
S - Снежный покров - Высота снежного покрова, см. При наведении курсора мыши на число - состояние снежного покрова и степень покрытия местности в баллах.